Location: Camp Creek
(33.9000°N, 111.8167°W)
Time: 23:26:44
(UTC-07:00)

DELTA 2 R/B (1) - Visible Passes

Search period start: 10 February 2016 00:00
Search period end: 20 February 2016 00:00
Orbit: 790 x 804 km, 39.6° (Epoch: 10 February)

Date Brightness Start Highest point End Pass type
(mag) Time Alt. Az. Time Alt. Az. Time Alt. Az.
10 Feb 4.4 04:44:55 46° NE 04:44:55 46° NE 04:49:19 10° E visible
10 Feb 3.7 06:25:42 14° WNW 06:30:29 72° SSW 06:36:04 10° SE visible
11 Feb 5.4 04:15:51 27° ENE 04:15:51 27° ENE 04:18:30 10° E visible
11 Feb 3.6 05:56:38 28° WNW 05:59:43 77° SSW 06:05:19 10° ESE visible
12 Feb 6.3 03:46:50 14° E 03:46:50 14° E 03:47:40 10° E visible
12 Feb 3.5 05:27:38 54° WNW 05:28:56 82° SSW 05:34:34 10° ESE visible
13 Feb 3.6 04:58:40 74° SE 04:58:40 74° SE 05:03:48 10° ESE visible
13 Feb 4.9 06:39:42 10° W 06:44:12 25° SW 06:48:44 10° SSE visible
14 Feb 4.9 04:29:47 36° ESE 04:29:47 36° ESE 04:33:00 10° ESE visible
14 Feb 4.7 06:10:35 18° W 06:13:29 28° SW 06:18:10 10° SSE visible
15 Feb 6.0 04:00:58 17° ESE 04:00:58 17° ESE 04:02:13 10° ESE visible
15 Feb 4.5 05:41:47 28° SW 05:42:44 30° SW 05:47:34 10° SSE visible
16 Feb 4.6 05:13:03 31° SSW 05:13:03 31° SSW 05:16:58 10° SSE visible
17 Feb 5.4 04:44:23 20° SSE 04:44:23 20° SSE 04:46:20 10° SSE visible
17 Feb 5.9 20:58:46 10° SW 20:59:34 14° SW 20:59:34 14° SW visible
18 Feb 4.9 20:28:07 10° SW 20:31:00 28° SSW 20:31:00 28° SSW visible
19 Feb 4.2 19:57:28 10° SSW 20:02:23 37° SSE 20:02:23 37° SSE visible
